TimeEDT,TemperatureF,Dew PointF,Humidity,Sea Level PressureIn,VisibilityMPH,Wind Direction,Wind SpeedMPH,Gust SpeedMPH,PrecipitationIn,Events,Conditions,WindDirDegrees,DateUTC
12:53 AM,57.9,57.0,97,29.96,10.0,Calm,Calm,-,0.09,,Overcast,0,2013-03-19 04:53:00
1:53 AM,57.9,57.9,100,29.98,4.0,South,3.5,-,0.05,Rain,Rain,170,2013-03-19 05:53:00
2:17 AM,57.2,57.2,100,29.91,6.0,SSE,13.8,19.6,0.05,Rain,Light Rain,160,2013-03-19 06:17:00
2:53 AM,57.0,57.0,100,29.90,10.0,SE,6.9,-,0.05,,Mostly Cloudy,130,2013-03-19 06:53:00
3:15 AM,57.2,57.2,100,29.88,10.0,SE,4.6,-,N/A,,Scattered Clouds,130,2013-03-19 07:15:00
3:53 AM,55.9,55.9,100,29.86,10.0,Calm,Calm,-,N/A,,Clear,0,2013-03-19 07:53:00
4:53 AM,54.0,54.0,100,29.88,6.0,WSW,3.5,-,N/A,,Partly Cloudy,240,2013-03-19 08:53:00
5:53 AM,57.0,57.0,100,29.94,10.0,SW,10.4,19.6,0.00,Rain,Light Rain,230,2013-03-19 09:53:00
6:53 AM,55.9,55.9,100,29.92,10.0,Calm,Calm,-,0.02,,Partly Cloudy,0,2013-03-19 10:53:00
7:53 AM,54.0,54.0,100,29.94,8.0,WSW,4.6,-,N/A,,Clear,240,2013-03-19 11:53:00
8:53 AM,57.0,57.0,100,29.97,10.0,West,5.8,-,N/A,,Clear,270,2013-03-19 12:53:00
9:16 AM,57.2,57.2,100,29.99,10.0,Variable,5.8,-,N/A,,Mostly Cloudy,0,2013-03-19 13:16:00
9:53 AM,59.0,57.9,96,29.99,10.0,West,9.2,-,N/A,,Overcast,280,2013-03-19 13:53:00
10:01 AM,59.0,57.2,94,30.00,10.0,WNW,6.9,-,N/A,,Overcast,290,2013-03-19 14:01:00
10:08 AM,57.2,57.2,100,30.00,10.0,WNW,8.1,-,N/A,,Overcast,290,2013-03-19 14:08:00
10:53 AM,59.0,55.9,90,30.01,10.0,NW,12.7,-,N/A,,Overcast,310,2013-03-19 14:53:00
11:08 AM,59.0,55.4,88,30.02,10.0,NW,10.4,-,N/A,,Overcast,310,2013-03-19 15:08:00
11:53 AM,59.0,55.0,87,30.03,10.0,NW,12.7,-,N/A,,Overcast,310,2013-03-19 15:53:00
12:49 PM,62.6,55.4,77,30.01,10.0,WNW,5.8,-,N/A,,Scattered Clouds,290,2013-03-19 16:49:00
12:53 PM,62.1,55.9,80,30.01,10.0,West,8.1,-,N/A,,Scattered Clouds,270,2013-03-19 16:53:00
1:53 PM,66.9,55.9,68,29.99,10.0,NW,9.2,-,N/A,,Clear,310,2013-03-19 17:53:00
2:53 PM,70.0,54.0,57,29.97,10.0,NNW,8.1,-,N/A,,Clear,330,2013-03-19 18:53:00
3:53 PM,73.0,51.1,46,29.96,10.0,NW,11.5,-,N/A,,Clear,320,2013-03-19 19:53:00
4:53 PM,73.0,46.0,38,29.95,10.0,WNW,10.4,-,N/A,,Clear,300,2013-03-19 20:53:00
5:53 PM,73.0,43.0,34,29.95,10.0,NW,5.8,-,N/A,,Clear,320,2013-03-19 21:53:00
6:53 PM,72.0,39.0,30,29.96,10.0,NW,5.8,-,N/A,,Clear,310,2013-03-19 22:53:00
7:53 PM,61.0,48.9,64,29.97,10.0,Calm,Calm,-,N/A,,Clear,0,2013-03-19 23:53:00
8:53 PM,55.9,46.9,72,29.99,10.0,Calm,Calm,-,N/A,,Clear,0,2013-03-20 00:53:00
9:53 PM,52.0,48.0,86,30.01,10.0,Calm,Calm,-,N/A,,Clear,0,2013-03-20 01:53:00
10:53 PM,51.1,46.0,83,30.03,10.0,NNW,3.5,-,N/A,,Clear,340,2013-03-20 02:53:00
11:53 PM,52.0,39.9,63,30.02,10.0,NNW,4.6,-,N/A,,Clear,330,2013-03-20 03:53:00